NGS3080 KABQ-KDEN

Flight info

Callsign NGS3080
Flight time 0h 55m
Altitude 37000
Route JEMEZ GNDLA TBARR4
Aircraft A319/M-SDE3FGHIRWY/LB1

Departure

Time 2026-05-03 22:09
Airport Albuquerque International Sunport (KABQ)

Arrival

Time 2026-05-03 23:05
Airport Denver International Airport (KDEN)
Time Latitude Longitude Altitude Speed Heading
2026-05-03 21:33 35.04693 -106.61588 5317 ft 0 kts 11°
2026-05-03 21:59 35.04686 -106.61590 5322 ft 4 kts 11°
2026-05-03 21:59 35.04660 -106.61598 5318 ft 4 kts 19°
2026-05-03 21:59 35.04636 -106.61611 5317 ft 4 kts 40°
2026-05-03 22:00 35.04623 -106.61633 5312 ft 2 kts 90°
2026-05-03 22:00 35.04623 -106.61635 5312 ft 0 kts 90°
2026-05-03 22:04 35.04620 -106.61625 5322 ft 2 kts 111°
2026-05-03 22:04 35.04597 -106.61605 5315 ft 6 kts 163°
2026-05-03 22:04 35.04555 -106.61642 5313 ft 10 kts 255°
2026-05-03 22:05 35.04553 -106.61745 5322 ft 13 kts 270°
2026-05-03 22:05 35.04554 -106.61870 5322 ft 16 kts 271°
2026-05-03 22:05 35.04554 -106.62014 5314 ft 18 kts 270°
2026-05-03 22:05 35.04530 -106.62135 5318 ft 7 kts 212°
2026-05-03 22:06 35.04527 -106.62137 5320 ft 0 kts 207°
2026-05-03 22:07 35.04526 -106.62138 5320 ft 0 kts 206°
2026-05-03 22:07 35.04518 -106.62140 5319 ft 3 kts 194°
2026-05-03 22:07 35.04490 -106.62141 5319 ft 5 kts 180°
2026-05-03 22:08 35.04444 -106.62129 5318 ft 8 kts 144°
2026-05-03 22:08 35.04433 -106.62055 5320 ft 12 kts 90°
2026-05-03 22:08 35.04431 -106.61777 5322 ft 57 kts 90°
2026-05-03 22:08 35.04426 -106.61078 5318 ft 108 kts 90°
2026-05-03 22:09 35.04419 -106.59963 5321 ft 155 kts 91°
2026-05-03 22:09 35.04413 -106.58499 5506 ft 181 kts 93°
2026-05-03 22:09 35.04391 -106.56955 6226 ft 182 kts 91°
2026-05-03 22:10 35.04374 -106.53775 7141 ft 203 kts 77°
2026-05-03 22:10 35.05182 -106.52319 7307 ft 222 kts 31°
2026-05-03 22:10 35.06723 -106.51881 7576 ft 242 kts 349°
2026-05-03 22:10 35.08304 -106.52749 7996 ft 263 kts 322°
2026-05-03 22:11 35.09706 -106.54277 8637 ft 277 kts 313°
2026-05-03 22:11 35.11022 -106.56032 9546 ft 281 kts 311°
2026-05-03 22:11 35.12312 -106.57822 10493 ft 282 kts 311°
2026-05-03 22:11 35.13634 -106.59602 11387 ft 284 kts 311°
2026-05-03 22:12 35.14535 -106.60768 11985 ft 285 kts 312°
2026-05-03 22:12 35.16404 -106.63092 13046 ft 288 kts 313°
2026-05-03 22:12 35.17351 -106.64236 13625 ft 290 kts 313°
2026-05-03 22:12 35.18803 -106.65964 14410 ft 293 kts 313°
2026-05-03 22:13 35.20273 -106.67694 15195 ft 294 kts 313°
2026-05-03 22:13 35.21757 -106.69432 15961 ft 297 kts 313°
2026-05-03 22:13 35.23256 -106.71180 16731 ft 299 kts 313°
2026-05-03 22:13 35.24962 -106.72730 17210 ft 317 kts 322°
2026-05-03 22:14 35.26894 -106.74220 17352 ft 339 kts 323°
2026-05-03 22:14 35.28930 -106.75771 17808 ft 349 kts 323°
2026-05-03 22:14 35.31012 -106.77345 18417 ft 354 kts 323°
2026-05-03 22:14 35.33118 -106.78937 19012 ft 357 kts 323°
2026-05-03 22:15 35.35242 -106.80545 19616 ft 360 kts 323°
2026-05-03 22:15 35.37381 -106.82171 20245 ft 363 kts 323°
2026-05-03 22:15 35.39525 -106.83811 20872 ft 365 kts 322°
2026-05-03 22:15 35.41776 -106.85320 21465 ft 373 kts 330°
2026-05-03 22:16 35.44277 -106.86325 22070 ft 384 kts 341°
2026-05-03 22:16 35.46944 -106.86820 22652 ft 391 kts 346°
2026-05-03 22:16 35.49660 -106.87231 23224 ft 394 kts 346°
2026-05-03 22:16 35.52388 -106.87640 23746 ft 397 kts 346°
2026-05-03 22:17 35.55138 -106.88054 24242 ft 400 kts 346°
2026-05-03 22:17 35.57903 -106.88473 24740 ft 401 kts 345°
2026-05-03 22:17 35.60675 -106.88898 25207 ft 403 kts 345°
2026-05-03 22:17 35.63463 -106.89329 25666 ft 405 kts 345°
2026-05-03 22:18 35.66269 -106.89764 26116 ft 407 kts 345°
2026-05-03 22:18 35.69094 -106.90203 26541 ft 410 kts 345°
2026-05-03 22:18 35.71936 -106.90645 26990 ft 413 kts 344°
2026-05-03 22:18 35.74788 -106.91087 27442 ft 415 kts 344°
2026-05-03 22:19 35.77664 -106.91532 27878 ft 418 kts 344°
2026-05-03 22:19 35.80556 -106.91979 28362 ft 420 kts 345°
2026-05-03 22:19 35.83459 -106.92430 28846 ft 422 kts 344°
2026-05-03 22:19 35.86383 -106.92885 29291 ft 424 kts 344°
2026-05-03 22:20 35.89321 -106.93342 29720 ft 426 kts 344°
2026-05-03 22:20 35.92276 -106.93766 30126 ft 432 kts 347°
2026-05-03 22:20 35.95329 -106.93731 30465 ft 446 kts 356°
2026-05-03 22:20 35.98432 -106.93162 30813 ft 453 kts
2026-05-03 22:21 36.01543 -106.92534 31144 ft 454 kts 360°
2026-05-03 22:21 36.04677 -106.91912 31503 ft 456 kts 360°
2026-05-03 22:21 36.07817 -106.91289 31833 ft 458 kts 359°
2026-05-03 22:21 36.10967 -106.90665 32185 ft 460 kts 359°
2026-05-03 22:22 36.14122 -106.90038 32672 ft 458 kts 359°
2026-05-03 22:22 36.17260 -106.89409 33191 ft 456 kts 359°
2026-05-03 22:22 36.20382 -106.88778 33684 ft 454 kts 358°
2026-05-03 22:22 36.23459 -106.88161 34136 ft 453 kts 358°
2026-05-03 22:23 36.26567 -106.87542 34538 ft 452 kts 358°
2026-05-03 22:23 36.29706 -106.86915 34915 ft 452 kts 358°
2026-05-03 22:23 36.32774 -106.86306 35263 ft 451 kts 358°
2026-05-03 22:23 36.35911 -106.85682 35614 ft 451 kts 358°
2026-05-03 22:24 36.39011 -106.85064 35965 ft 451 kts 357°
2026-05-03 22:24 36.42106 -106.84449 36313 ft 450 kts 357°
2026-05-03 22:24 36.45161 -106.83838 36658 ft 450 kts 358°
2026-05-03 22:24 36.48253 -106.83214 36935 ft 451 kts 357°
2026-05-03 22:25 36.51346 -106.82587 37038 ft 449 kts 358°
2026-05-03 22:25 36.57488 -106.81342 37006 ft 446 kts 357°
2026-05-03 22:26 36.63611 -106.80110 37013 ft 446 kts 357°
2026-05-03 22:26 36.69756 -106.78876 37014 ft 448 kts 357°
2026-05-03 22:27 36.75899 -106.77635 37052 ft 447 kts 358°
2026-05-03 22:27 36.82029 -106.76174 37073 ft 451 kts
2026-05-03 22:28 36.88165 -106.74375 37057 ft 452 kts
2026-05-03 22:28 36.94286 -106.72562 37065 ft 452 kts
2026-05-03 22:29 37.00414 -106.70827 37095 ft 450 kts
2026-05-03 22:29 37.06531 -106.69123 37102 ft 450 kts
2026-05-03 22:30 37.12643 -106.67413 37110 ft 449 kts
2026-05-03 22:30 37.18734 -106.65702 37094 ft 449 kts
2026-05-03 22:31 37.24833 -106.63974 37094 ft 448 kts
2026-05-03 22:31 37.30903 -106.62259 37082 ft 448 kts
2026-05-03 22:32 37.36952 -106.60547 37077 ft 448 kts
2026-05-03 22:32 37.43029 -106.58824 37083 ft 448 kts
2026-05-03 22:33 37.49115 -106.57096 37100 ft 448 kts
2026-05-03 22:33 37.55168 -106.55368 37102 ft 447 kts
2026-05-03 22:34 37.61249 -106.53641 37121 ft 448 kts
2026-05-03 22:34 37.67319 -106.51908 37136 ft 448 kts
2026-05-03 22:35 37.73402 -106.50170 37156 ft 448 kts
2026-05-03 22:35 37.79487 -106.48430 37139 ft 448 kts
2026-05-03 22:36 37.85568 -106.46682 37118 ft 448 kts
2026-05-03 22:36 37.91646 -106.44932 37092 ft 448 kts
2026-05-03 22:37 37.97728 -106.43193 37059 ft 447 kts
2026-05-03 22:37 38.03797 -106.41447 37045 ft 447 kts
2026-05-03 22:38 38.09862 -106.39697 37033 ft 447 kts
2026-05-03 22:38 38.15935 -106.37941 37028 ft 448 kts
2026-05-03 22:39 38.22008 -106.36179 37040 ft 448 kts
2026-05-03 22:39 38.28079 -106.34414 37017 ft 447 kts
2026-05-03 22:40 38.34146 -106.32659 37027 ft 447 kts
2026-05-03 22:40 38.40207 -106.30901 37038 ft 447 kts
2026-05-03 22:41 38.46261 -106.29138 37064 ft 447 kts
2026-05-03 22:41 38.52324 -106.27378 37063 ft 447 kts
2026-05-03 22:41 38.55359 -106.26497 36846 ft 447 kts
2026-05-03 22:42 38.58392 -106.25612 36580 ft 446 kts
2026-05-03 22:42 38.61388 -106.24519 36326 ft 454 kts 13°
2026-05-03 22:42 38.64276 -106.22781 36063 ft 464 kts 23°
2026-05-03 22:42 38.66963 -106.20429 35372 ft 476 kts 34°
2026-05-03 22:43 38.69310 -106.17481 34575 ft 481 kts 45°
2026-05-03 22:43 38.71465 -106.14151 33704 ft 477 kts 46°
2026-05-03 22:43 38.73528 -106.10960 33278 ft 467 kts 46°
2026-05-03 22:43 38.75605 -106.07765 32690 ft 465 kts 46°
2026-05-03 22:44 38.77675 -106.04597 32141 ft 463 kts 46°
2026-05-03 22:44 38.79739 -106.01440 31573 ft 461 kts 46°
2026-05-03 22:44 38.81796 -105.98297 30995 ft 459 kts 46°
2026-05-03 22:44 38.83868 -105.95125 30388 ft 457 kts 46°
2026-05-03 22:45 38.85877 -105.92035 29521 ft 455 kts 46°
2026-05-03 22:45 38.87887 -105.88933 28979 ft 451 kts 46°
2026-05-03 22:45 38.89880 -105.85850 28485 ft 445 kts 47°
2026-05-03 22:45 38.91838 -105.82805 28025 ft 439 kts 47°
2026-05-03 22:46 38.93766 -105.79794 27318 ft 433 kts 47°
2026-05-03 22:46 38.95663 -105.76825 26621 ft 426 kts 47°
2026-05-03 22:46 38.97533 -105.73902 26064 ft 421 kts 47°
2026-05-03 22:46 38.99383 -105.71010 25509 ft 416 kts 47°
2026-05-03 22:47 39.01207 -105.68154 24949 ft 412 kts 48°
2026-05-03 22:47 39.03018 -105.65321 24503 ft 409 kts 47°
2026-05-03 22:47 39.04824 -105.62515 24137 ft 405 kts 47°
2026-05-03 22:47 39.06620 -105.59734 23810 ft 403 kts 48°
2026-05-03 22:48 39.08406 -105.56970 23391 ft 400 kts 48°
2026-05-03 22:48 39.10176 -105.54228 22960 ft 397 kts 48°
2026-05-03 22:48 39.11930 -105.51501 22572 ft 394 kts 48°
2026-05-03 22:48 39.13672 -105.48784 22172 ft 392 kts 48°
2026-05-03 22:49 39.15397 -105.46084 21764 ft 389 kts 49°
2026-05-03 22:49 39.17110 -105.43385 21176 ft 389 kts 49°
2026-05-03 22:49 39.18807 -105.40690 20723 ft 384 kts 49°
2026-05-03 22:49 39.20482 -105.38018 20141 ft 379 kts 49°
2026-05-03 22:50 39.22120 -105.35398 19523 ft 373 kts 49°
2026-05-03 22:50 39.23740 -105.32809 19003 ft 369 kts 50°
2026-05-03 22:50 39.25349 -105.30238 18471 ft 365 kts 50°
2026-05-03 22:50 39.26903 -105.27731 18176 ft 350 kts 52°
2026-05-03 22:51 39.28102 -105.25070 17885 ft 340 kts 65°
2026-05-03 22:51 39.28830 -105.22167 17621 ft 339 kts 78°
2026-05-03 22:51 39.29201 -105.19177 17356 ft 337 kts 81°
2026-05-03 22:51 39.29551 -105.16191 17025 ft 336 kts 81°
2026-05-03 22:52 39.29899 -105.13225 16640 ft 334 kts 81°
2026-05-03 22:52 39.30247 -105.10269 16248 ft 332 kts 81°
2026-05-03 22:52 39.30593 -105.07329 15851 ft 330 kts 81°
2026-05-03 22:52 39.30936 -105.04407 15464 ft 328 kts 81°
2026-05-03 22:53 39.31278 -105.01501 15077 ft 326 kts 81°
2026-05-03 22:53 39.31665 -104.98620 14620 ft 327 kts 78°
2026-05-03 22:53 39.32159 -104.95759 14296 ft 323 kts 75°
2026-05-03 22:53 39.32690 -104.92993 14187 ft 312 kts 75°
2026-05-03 22:54 39.33220 -104.90323 14053 ft 303 kts 73°
2026-05-03 22:54 39.33733 -104.87732 13907 ft 290 kts 73°
2026-05-03 22:54 39.34284 -104.85314 13655 ft 280 kts 71°
2026-05-03 22:54 39.34897 -104.82915 13378 ft 277 kts 69°
2026-05-03 22:55 39.35516 -104.80567 13104 ft 275 kts 69°
2026-05-03 22:55 39.36125 -104.78264 12851 ft 273 kts 68°
2026-05-03 22:55 39.36779 -104.76009 12777 ft 263 kts 67°
2026-05-03 22:55 39.37440 -104.73845 12686 ft 255 kts 66°
2026-05-03 22:56 39.38100 -104.71741 12655 ft 251 kts 63°
2026-05-03 22:56 39.39038 -104.69869 12565 ft 246 kts 45°
2026-05-03 22:56 39.40305 -104.68413 12473 ft 242 kts 31°
2026-05-03 22:56 39.41750 -104.67309 12380 ft 240 kts 21°
2026-05-03 22:57 39.43316 -104.66642 12294 ft 236 kts
2026-05-03 22:57 39.44942 -104.66506 12211 ft 234 kts 357°
2026-05-03 22:57 39.46572 -104.66490 12126 ft 235 kts 358°
2026-05-03 22:57 39.48202 -104.66469 12042 ft 234 kts 357°
2026-05-03 22:58 39.49829 -104.66448 11825 ft 237 kts 358°
2026-05-03 22:58 39.51509 -104.66429 11390 ft 244 kts 358°
2026-05-03 22:58 39.52658 -104.66416 11160 ft 245 kts 358°
2026-05-03 22:58 39.54369 -104.66395 10844 ft 247 kts 356°
2026-05-03 22:59 39.56090 -104.66374 10531 ft 248 kts 357°
2026-05-03 22:59 39.57820 -104.66353 10201 ft 249 kts 356°
2026-05-03 22:59 39.59550 -104.66333 9895 ft 248 kts 358°
2026-05-03 22:59 39.61272 -104.66312 9565 ft 246 kts 357°
2026-05-03 23:00 39.62945 -104.66292 9250 ft 243 kts 357°
2026-05-03 23:00 39.64624 -104.66272 8934 ft 240 kts 358°
2026-05-03 23:00 39.66284 -104.66252 8618 ft 237 kts 356°
2026-05-03 23:00 39.67920 -104.66232 8314 ft 234 kts 358°
2026-05-03 23:01 39.69510 -104.66212 8015 ft 222 kts 356°
2026-05-03 23:01 39.70979 -104.66193 7750 ft 207 kts 356°
2026-05-03 23:01 39.72362 -104.66177 7495 ft 191 kts 357°
2026-05-03 23:01 39.73635 -104.66161 7264 ft 176 kts 356°
2026-05-03 23:02 39.74808 -104.66147 7049 ft 162 kts 355°
2026-05-03 23:02 39.75889 -104.66134 6856 ft 150 kts 354°
2026-05-03 23:02 39.76923 -104.66126 6681 ft 146 kts 354°
2026-05-03 23:02 39.77946 -104.66120 6443 ft 147 kts 354°
2026-05-03 23:03 39.78958 -104.66111 6276 ft 146 kts 358°
2026-05-03 23:03 39.79980 -104.66099 6081 ft 146 kts 356°
2026-05-03 23:03 39.80992 -104.66080 5814 ft 146 kts 354°
2026-05-03 23:03 39.82015 -104.66069 5617 ft 149 kts 355°
2026-05-03 23:04 39.83047 -104.66049 5383 ft 147 kts 354°
2026-05-03 23:04 39.83975 -104.66051 5366 ft 116 kts
2026-05-03 23:04 39.84609 -104.66035 5375 ft 67 kts
2026-05-03 23:04 39.84979 -104.66033 5375 ft 53 kts 357°
2026-05-03 23:05 39.85279 -104.66139 5383 ft 27 kts 324°
2026-05-03 23:05 39.85348 -104.66198 5386 ft 0 kts 328°
2026-05-03 23:05 39.85352 -104.66202 5386 ft 1 kts 326°
2026-05-03 23:05 39.85355 -104.66210 5386 ft 1 kts 294°
2026-05-03 23:06 39.85347 -104.66230 5386 ft 4 kts 222°
2026-05-03 23:06 39.85305 -104.66267 5386 ft 10 kts 228°
2026-05-03 23:06 39.85295 -104.66371 5386 ft 13 kts 270°
2026-05-03 23:06 39.85293 -104.66505 5387 ft 16 kts 263°
2026-05-03 23:07 39.85275 -104.66673 5387 ft 22 kts 266°
2026-05-03 23:07 39.85275 -104.66911 5386 ft 28 kts 270°
2026-05-03 23:07 39.85277 -104.67173 5385 ft 30 kts 271°
2026-05-03 23:07 39.85278 -104.67389 5386 ft 20 kts 270°
2026-05-03 23:08 39.85279 -104.67483 5385 ft 6 kts 271°
2026-05-03 23:08 39.85280 -104.67544 5385 ft 8 kts 273°
2026-05-03 23:08 39.85300 -104.67578 5383 ft 6 kts
2026-05-03 23:08 39.85337 -104.67554 5382 ft 0 kts 28°